TimeCST,TemperatureF,Dew PointF,Humidity,Sea Level PressureIn,VisibilityMPH,Wind Direction,Wind SpeedMPH,Gust SpeedMPH,PrecipitationIn,Events,Conditions,WindDirDegrees,DateUTC
12:15 AM,30.2,24.8,80,30.20,10.0,South,8.1,-,N/A,,Overcast,170,2012-11-04 05:15:00
12:35 AM,28.4,24.8,86,30.19,10.0,SE,6.9,-,N/A,,Overcast,140,2012-11-04 05:35:00
12:55 AM,28.4,24.8,86,30.19,10.0,SSE,8.1,-,N/A,,Overcast,160,2012-11-04 05:55:00
1:15 AM,28.4,24.8,86,30.20,10.0,South,8.1,-,N/A,,Overcast,190,2012-11-04 06:15:00
1:35 AM,28.4,24.8,86,30.20,10.0,South,8.1,-,N/A,,Overcast,170,2012-11-04 06:35:00
1:15 AM,28.4,24.8,86,30.19,10.0,SSE,8.1,-,N/A,,Overcast,160,2012-11-04 07:15:00
1:35 AM,28.4,24.8,86,30.19,10.0,South,10.4,-,N/A,,Overcast,190,2012-11-04 07:35:00
1:55 AM,28.4,24.8,86,30.18,10.0,SSE,8.1,-,N/A,,Overcast,160,2012-11-04 07:55:00
2:15 AM,28.4,24.8,86,30.17,10.0,SSE,9.2,-,N/A,,Overcast,150,2012-11-04 08:15:00
2:35 AM,28.4,24.8,86,30.17,10.0,SE,9.2,-,N/A,,Overcast,140,2012-11-04 08:35:00
2:55 AM,28.4,24.8,86,30.16,10.0,SSE,11.5,-,N/A,,Overcast,150,2012-11-04 08:55:00
3:15 AM,28.4,24.8,86,30.15,10.0,SSE,9.2,-,N/A,,Overcast,150,2012-11-04 09:15:00
3:35 AM,28.4,24.8,86,30.15,10.0,SSE,10.4,-,N/A,,Mostly Cloudy,150,2012-11-04 09:35:00
3:55 AM,28.4,26.6,93,30.14,10.0,SE,10.4,-,N/A,,Overcast,140,2012-11-04 09:55:00
4:15 AM,28.4,26.6,93,30.14,10.0,SE,10.4,-,N/A,,Overcast,140,2012-11-04 10:15:00
4:35 AM,28.4,26.6,93,30.13,10.0,SSE,10.4,-,N/A,,Overcast,150,2012-11-04 10:35:00
4:55 AM,30.2,26.6,86,30.14,10.0,SSE,10.4,-,N/A,,Overcast,150,2012-11-04 10:55:00
5:15 AM,30.2,26.6,86,30.13,10.0,SSE,9.2,-,N/A,,Overcast,150,2012-11-04 11:15:00
5:35 AM,30.2,26.6,86,30.13,10.0,SSE,9.2,-,N/A,,Mostly Cloudy,150,2012-11-04 11:35:00
5:55 AM,28.4,26.6,93,30.12,10.0,SSE,9.2,-,N/A,,Mostly Cloudy,150,2012-11-04 11:55:00
6:15 AM,28.4,26.6,93,30.13,10.0,SSE,6.9,-,N/A,,Overcast,150,2012-11-04 12:15:00
6:35 AM,28.4,26.6,93,30.12,10.0,SE,9.2,-,N/A,,Overcast,140,2012-11-04 12:35:00
6:55 AM,30.2,26.6,86,30.12,10.0,SSE,5.8,-,N/A,,Overcast,160,2012-11-04 12:55:00
7:15 AM,30.2,26.6,86,30.11,7.0,SSE,10.4,-,N/A,,Overcast,150,2012-11-04 13:15:00
7:35 AM,30.2,26.6,86,30.11,5.0,SSE,8.1,-,N/A,Rain,Freezing Rain,160,2012-11-04 13:35:00
7:55 AM,30.2,28.4,93,30.11,4.0,SSE,9.2,-,N/A,Rain,Freezing Rain,150,2012-11-04 13:55:00
8:15 AM,30.2,28.4,93,30.10,3.0,SSE,8.1,-,N/A,Rain,Freezing Rain,150,2012-11-04 14:15:00
8:35 AM,32.0,28.4,87,30.10,4.0,SSE,8.1,-,N/A,Rain,Light Rain,160,2012-11-04 14:35:00
8:55 AM,32.0,28.4,87,30.10,3.0,SSE,6.9,-,N/A,Rain,Light Rain,160,2012-11-04 14:55:00
9:15 AM,32.0,28.4,87,30.09,4.0,South,11.5,-,N/A,Rain,Light Rain,170,2012-11-04 15:15:00
9:35 AM,32.0,28.4,87,30.09,5.0,South,8.1,-,N/A,Rain,Light Rain,170,2012-11-04 15:35:00
9:55 AM,32.0,28.4,87,30.08,4.0,South,8.1,-,0.01,Rain,Light Rain,170,2012-11-04 15:55:00
10:35 AM,32.0,30.2,93,30.09,9.0,SSW,4.6,-,N/A,,Mostly Cloudy,200,2012-11-04 16:35:00
10:55 AM,32.0,30.2,93,30.10,5.0,SSW,4.6,-,N/A,Rain,Light Rain,200,2012-11-04 16:55:00
11:15 AM,32.0,30.2,93,30.10,9.0,South,9.2,-,N/A,,Overcast,190,2012-11-04 17:15:00
11:35 AM,32.0,30.2,93,30.09,8.0,South,8.1,-,N/A,,Overcast,180,2012-11-04 17:35:00
11:55 AM,32.0,30.2,93,30.09,7.0,South,5.8,-,N/A,,Overcast,170,2012-11-04 17:55:00
12:15 PM,32.0,30.2,93,30.08,7.0,South,6.9,-,N/A,,Overcast,170,2012-11-04 18:15:00
12:35 PM,32.0,32.0,100,30.07,6.0,SSE,6.9,-,N/A,Rain,Light Rain,150,2012-11-04 18:35:00
12:55 PM,32.0,32.0,100,30.07,7.0,SE,4.6,-,N/A,,Overcast,140,2012-11-04 18:55:00
1:15 PM,32.0,32.0,100,30.08,8.0,SE,5.8,-,N/A,,Overcast,140,2012-11-04 19:15:00
1:35 PM,32.0,32.0,100,30.08,8.0,SSE,4.6,-,N/A,,Overcast,160,2012-11-04 19:35:00
1:55 PM,32.0,32.0,100,30.09,7.0,SSE,3.5,-,N/A,,Overcast,160,2012-11-04 19:55:00
2:15 PM,32.0,32.0,100,30.09,7.0,SE,4.6,-,N/A,,Overcast,130,2012-11-04 20:15:00
2:35 PM,33.8,32.0,93,30.09,8.0,SSE,3.5,-,N/A,,Overcast,160,2012-11-04 20:35:00
2:55 PM,33.8,32.0,93,30.09,6.0,SE,3.5,-,N/A,,Overcast,140,2012-11-04 20:55:00
3:15 PM,33.8,32.0,93,30.09,7.0,SE,3.5,-,N/A,,Overcast,130,2012-11-04 21:15:00
3:35 PM,33.8,32.0,93,30.11,7.0,South,3.5,-,N/A,,Overcast,180,2012-11-04 21:35:00
3:55 PM,33.8,32.0,93,30.11,6.0,Calm,Calm,-,N/A,,Overcast,0,2012-11-04 21:55:00
4:15 PM,33.8,32.0,93,30.11,7.0,Calm,Calm,-,N/A,,Overcast,0,2012-11-04 22:15:00
4:35 PM,35.6,32.0,87,30.13,6.0,Calm,Calm,-,N/A,,Overcast,0,2012-11-04 22:35:00
4:55 PM,35.6,32.0,87,30.14,6.0,Calm,Calm,-,N/A,,Overcast,0,2012-11-04 22:55:00
5:15 PM,33.8,32.0,93,30.14,6.0,NNE,3.5,-,N/A,,Overcast,20,2012-11-04 23:15:00
5:35 PM,33.8,32.0,93,30.15,5.0,Calm,Calm,-,N/A,,Overcast,0,2012-11-04 23:35:00
5:55 PM,33.8,32.0,93,30.16,5.0,Calm,Calm,-,N/A,,Overcast,0,2012-11-04 23:55:00
6:15 PM,32.0,32.0,100,30.18,3.0,Calm,Calm,-,N/A,,Overcast,0,2012-11-05 00:15:00
6:35 PM,32.0,32.0,100,30.19,1.2,Calm,Calm,-,N/A,,Overcast,0,2012-11-05 00:35:00
6:55 PM,32.0,32.0,100,30.18,1.0,Calm,Calm,-,N/A,,Overcast,0,2012-11-05 00:55:00
7:15 PM,32.0,32.0,100,30.19,1.0,Calm,Calm,-,N/A,,Overcast,0,2012-11-05 01:15:00
7:35 PM,32.0,32.0,100,30.20,1.0,Calm,Calm,-,N/A,,Overcast,0,2012-11-05 01:35:00
7:55 PM,32.0,32.0,100,30.20,0.8,Calm,Calm,-,N/A,,Overcast,0,2012-11-05 01:55:00
8:15 PM,32.0,32.0,100,30.20,0.8,Calm,Calm,-,N/A,,Overcast,0,2012-11-05 02:15:00
8:35 PM,33.8,32.0,93,30.20,2.5,Calm,Calm,-,N/A,,Overcast,0,2012-11-05 02:35:00
8:55 PM,33.8,32.0,93,30.21,2.0,Calm,Calm,-,N/A,,Overcast,0,2012-11-05 02:55:00
9:15 PM,33.8,33.8,100,30.22,1.2,WNW,4.6,-,N/A,,Overcast,300,2012-11-05 03:15:00
9:35 PM,35.6,33.8,93,30.22,1.8,WNW,3.5,-,N/A,,Overcast,290,2012-11-05 03:35:00
9:55 PM,35.6,33.8,93,30.23,2.5,NNW,4.6,-,N/A,,Overcast,340,2012-11-05 03:55:00
10:15 PM,35.6,33.8,93,30.22,5.0,NNW,4.6,-,N/A,,Overcast,330,2012-11-05 04:15:00
10:35 PM,35.6,33.8,93,30.22,5.0,NNW,4.6,-,N/A,,Overcast,330,2012-11-05 04:35:00
10:55 PM,35.6,33.8,93,30.22,5.0,NNW,5.8,-,N/A,,Overcast,330,2012-11-05 04:55:00